TITAN 3C TRANSTAGE R/B, 2770

Orbit data source: Space-Track

TITAN 3C TRANSTAGE R/B, 2770 is space debris in HEO originally from a launch on Fri, 28 Apr 1967 UTC launched from the Air Force Eastern Test Range (AFETR). Debris objects in space refer to the collection of defunct objects orbiting the Earth. Examples of debris include non-operational satellites, rocket bodies, and fragments generated from explosions, collisions, or faulty payload assembly.

Loading next visibility...
TITAN 3C TRANSTAGE R/B details
Identifier
2770, 1967-040F
Orbit
HEO
Last TLE updatein 2 days
Origin
Flag of USUSAF SSD (US)
ManufacturerMartin Marietta
MissionSpacecraft
Bus & MotorTRANSTAGE, Unknown motor
Mass3,103 kg wet, 3,103 kg dry
Launch date (UTC)
1967-04-28 (58 years ago)
Launch vehicleUnknown
Launch site
Air Force Eastern Test Range (AFETR)
Object type
Payload
Rocket body
Debris
Shape & HBRCyl + 2 Nozzle, 4.6 m
Radar Cross Section14.974 m², Large (>1 m²)

Expand to show TLE details & history

TLE from in 2 days
0 TITAN 3C TRANSTAGE R/B
1  2770U 67040F   24358.41037675 -.00000059  00000-0  00000+0 0  9992
2  2770  17.9856 223.5972 7844569 324.8878   0.2968  0.50948911101731
Epoch: 2024-12-23T09:50Z
Definitive object data (Epoch: 2024-12-23T09:50:56.551Z)
Latitude-10.5408°
Longitude-51.38621°
Altitude8,099.158 km
Speed7.003 km/s
True Right ascension12h 35m 07s
True Declination-10° 30' 37"
Sunlit
Object was in daylight at TLE epoch
Visualization TLE readout
Latitude13.0446°
Longitude30.3104°
Altitude17,258.479 km
Speed5.264 km/s
Apparent Right ascension18h 45m 40s
Apparent Declination2° 53' 38"
Sunlit
Object is in daylight
Visualization observer readout
Local Sidereal Time10:58:13
Azimuth69.772° E
Elevation-18.284°
Doppler factor1
Orbital elements
Apogee altitude111,790.05 km
Perigee altitude7,895.302 km
Semi-major axis66,220.813 km
Eccentricity0.7844569
Inclination17.9856°
RAAN223.5972°
Arg. of periapsis324.8878°
True anomaly3.95924°
Mean anomaly0.2968°
Eccentric anomaly1.3765°
Mean motion0.12737 °/min
BSTARUnknown
Orbital period2826.51 mins
Loading maneuver chart data...
Loading historical data...
Loading historical data...
Loading historical data...
Loading historical data...
Loading historical data...
Loading historical data...
Loading historical data...

TITAN 3C TRANSTAGE R/B Visibility forecast

Observer location: undefined°, undefined

Span
Click to sort rows by Start time (UTC) header in descending order
Start Az.
Max El. time (UTC)
Max El. Az.
Max El.
End time (UTC)
End Az.
779 mins2024-12-21 17:43:30.275Z80.779° E2024-12-22 00:29:30.275Z178.725° S41.52°2024-12-22 06:42:30.275Z274.091° WNW
|